Time,TemperatureF,DewpointF,PressureIn,WindDirection,WindDirectionDegrees,WindSpeedMPH,WindSpeedGustMPH,Humidity,HourlyPrecipIn,Conditions,Clouds,dailyrainin,SoftwareType,DateUTC
2013-05-24 00:03:00,72.0,70.0,29.88,South,188,0.0,0.0,95,0.00,,,0.00,,2013-05-24 04:03:00,
2013-05-24 00:12:00,72.0,70.0,29.88,South,188,0.0,0.0,95,0.00,,,0.00,,2013-05-24 04:12:00,
2013-05-24 00:23:00,72.0,70.0,29.87,South,188,0.0,0.0,95,0.00,,,0.00,,2013-05-24 04:23:00,
2013-05-24 00:33:00,71.0,69.0,29.87,South,188,0.0,0.0,95,0.00,,,0.00,,2013-05-24 04:33:00,
2013-05-24 00:42:00,71.0,69.0,29.87,South,188,0.0,0.0,95,0.00,,,0.00,,2013-05-24 04:42:00,
2013-05-24 00:53:00,71.0,69.0,29.87,South,188,0.0,1.0,95,0.00,,,0.00,,2013-05-24 04:53:00,
2013-05-24 01:02:00,71.0,69.0,29.87,South,187,0.0,0.0,95,0.00,,,0.00,,2013-05-24 05:02:00,
2013-05-24 01:12:00,71.0,69.0,29.87,South,187,0.0,0.0,95,0.00,,,0.00,,2013-05-24 05:12:00,
2013-05-24 01:22:00,70.0,68.0,29.86,South,189,0.0,0.0,93,0.00,,,0.00,,2013-05-24 05:22:00,
2013-05-24 01:32:00,70.0,68.0,29.86,South,189,0.0,0.0,93,0.00,,,0.00,,2013-05-24 05:32:00,
2013-05-24 01:42:00,70.0,68.0,29.86,South,189,0.0,0.0,93,0.00,,,0.00,,2013-05-24 05:42:00,
2013-05-24 01:52:00,70.0,68.0,29.85,South,189,0.0,1.0,93,0.00,,,0.00,,2013-05-24 05:52:00,
2013-05-24 02:02:00,70.0,68.0,29.85,South,190,0.0,0.0,92,0.00,,,0.00,,2013-05-24 06:02:00,
2013-05-24 02:12:00,70.0,68.0,29.85,South,190,0.0,0.0,92,0.00,,,0.00,,2013-05-24 06:12:00,
2013-05-24 02:21:00,70.0,68.0,29.84,South,190,0.0,0.0,92,0.00,,,0.00,,2013-05-24 06:21:00,
2013-05-24 02:32:00,70.0,68.0,29.85,South,190,0.0,0.0,92,0.00,,,0.00,,2013-05-24 06:32:00,
2013-05-24 02:42:00,70.0,68.0,29.85,South,190,0.0,0.0,92,0.00,,,0.00,,2013-05-24 06:42:00,
2013-05-24 02:52:00,70.0,67.0,29.85,SSW,213,0.0,1.0,90,0.00,,,0.00,,2013-05-24 06:52:00,
2013-05-24 03:01:00,70.0,66.0,29.85,WNW,287,0.0,1.0,88,0.00,,,0.00,,2013-05-24 07:01:00,
2013-05-24 03:11:00,70.0,66.0,29.85,WNW,287,0.0,1.0,88,0.00,,,0.00,,2013-05-24 07:11:00,
2013-05-24 03:22:00,70.0,65.0,29.85,West,278,0.0,1.0,85,0.00,,,0.00,,2013-05-24 07:22:00,
2013-05-24 03:32:00,70.0,65.0,29.85,SSW,213,0.0,2.0,84,0.00,,,0.00,,2013-05-24 07:32:00,
2013-05-24 03:42:00,70.0,65.0,29.85,SSW,213,0.0,2.0,84,0.00,,,0.00,,2013-05-24 07:42:00,
2013-05-24 03:52:00,70.0,64.0,29.85,SW,214,0.0,1.0,82,0.00,,,0.00,,2013-05-24 07:52:00,
2013-05-24 04:02:00,70.0,65.0,29.85,SW,214,0.0,1.0,83,0.00,,,0.00,,2013-05-24 08:02:00,
2013-05-24 04:11:00,70.0,65.0,29.85,SW,214,0.0,1.0,83,0.00,,,0.00,,2013-05-24 08:11:00,
2013-05-24 04:22:00,69.0,64.0,29.85,SW,214,0.0,1.0,84,0.00,,,0.00,,2013-05-24 08:22:00,
2013-05-24 04:33:00,69.0,64.0,29.85,SW,214,0.0,0.0,83,0.00,,,0.00,,2013-05-24 08:33:00,
2013-05-24 04:42:00,69.0,64.0,29.85,SW,214,0.0,0.0,83,0.00,,,0.00,,2013-05-24 08:42:00,
2013-05-24 04:52:00,68.0,63.0,29.85,SW,214,0.0,1.0,83,0.00,,,0.00,,2013-05-24 08:52:00,
2013-05-24 05:02:00,68.0,63.0,29.85,SW,216,0.0,1.0,84,0.00,,,0.00,,2013-05-24 09:02:00,
2013-05-24 05:11:00,68.0,63.0,29.85,SW,216,0.0,1.0,84,0.00,,,0.00,,2013-05-24 09:11:00,
2013-05-24 05:22:00,68.0,63.0,29.85,WSW,258,0.0,2.0,85,0.00,,,0.00,,2013-05-24 09:22:00,
2013-05-24 05:32:00,68.0,63.0,29.85,North,359,0.0,2.0,85,0.00,,,0.00,,2013-05-24 09:32:00,
2013-05-24 05:42:00,68.0,63.0,29.85,North,359,0.0,2.0,85,0.00,,,0.00,,2013-05-24 09:42:00,
2013-05-24 05:53:00,67.0,62.0,29.86,NNE,20,0.0,1.0,85,0.00,,,0.00,,2013-05-24 09:53:00,
2013-05-24 06:03:00,67.0,62.0,29.87,East,95,0.0,1.0,84,0.00,,,0.00,,2013-05-24 10:03:00,
2013-05-24 06:12:00,67.0,62.0,29.87,East,95,0.0,1.0,84,0.00,,,0.00,,2013-05-24 10:12:00,
2013-05-24 06:23:00,67.0,62.0,29.88,North,8,0.0,2.0,83,0.00,,,0.00,,2013-05-24 10:23:00,
2013-05-24 06:33:00,67.0,61.0,29.88,NNW,339,0.0,3.0,82,0.00,,,0.00,,2013-05-24 10:33:00,
2013-05-24 06:42:00,67.0,61.0,29.88,NNW,339,0.0,3.0,82,0.00,,,0.00,,2013-05-24 10:42:00,
2013-05-24 06:53:00,67.0,62.0,29.89,NE,37,0.0,3.0,83,0.00,,,0.00,,2013-05-24 10:53:00,
2013-05-24 07:02:00,67.0,62.0,29.89,NE,36,0.0,1.0,83,0.00,,,0.00,,2013-05-24 11:02:00,
2013-05-24 07:12:00,67.0,62.0,29.89,NE,36,0.0,1.0,83,0.00,,,0.00,,2013-05-24 11:12:00,
2013-05-24 07:22:00,67.0,62.0,29.90,South,191,0.0,3.0,84,0.00,,,0.00,,2013-05-24 11:22:00,
2013-05-24 07:32:00,67.0,62.0,29.90,NE,42,0.0,3.0,83,0.00,,,0.00,,2013-05-24 11:32:00,
2013-05-24 07:42:00,67.0,62.0,29.90,NE,42,0.0,3.0,83,0.00,,,0.00,,2013-05-24 11:42:00,
2013-05-24 07:52:00,68.0,62.0,29.90,North,355,2.0,5.0,81,0.00,,,0.00,,2013-05-24 11:52:00,
2013-05-24 08:02:00,68.0,62.0,29.90,NE,35,0.0,3.0,80,0.00,,,0.00,,2013-05-24 12:02:00,
2013-05-24 08:11:00,68.0,62.0,29.90,NE,35,0.0,3.0,80,0.00,,,0.00,,2013-05-24 12:11:00,
2013-05-24 08:22:00,69.0,62.0,29.90,NNE,18,0.0,6.0,78,0.00,,,0.00,,2013-05-24 12:22:00,
2013-05-24 08:32:00,71.0,63.0,29.91,NE,40,1.0,3.0,75,0.00,,,0.00,,2013-05-24 12:32:00,
2013-05-24 08:42:00,71.0,63.0,29.91,NE,40,1.0,3.0,75,0.00,,,0.00,,2013-05-24 12:42:00,
2013-05-24 08:52:00,73.0,63.0,29.91,NNE,25,0.0,3.0,72,0.00,,,0.00,,2013-05-24 12:52:00,
2013-05-24 09:02:00,74.0,64.0,29.91,NNE,32,0.0,3.0,70,0.00,,,0.00,,2013-05-24 13:02:00,
2013-05-24 09:11:00,74.0,64.0,29.91,NNE,32,0.0,3.0,70,0.00,,,0.00,,2013-05-24 13:11:00,
2013-05-24 09:22:00,76.0,64.0,29.92,West,267,1.0,3.0,67,0.00,,,0.00,,2013-05-24 13:22:00,
2013-05-24 09:32:00,76.0,64.0,29.92,ENE,58,1.0,7.0,66,0.00,,,0.00,,2013-05-24 13:32:00,
2013-05-24 09:42:00,76.0,64.0,29.92,ENE,58,1.0,7.0,66,0.00,,,0.00,,2013-05-24 13:42:00,
2013-05-24 09:52:00,78.0,63.0,29.92,NNE,12,2.0,5.0,61,0.00,,,0.00,,2013-05-24 13:52:00,
2013-05-24 10:02:00,78.0,63.0,29.92,North,354,3.0,8.0,61,0.00,,,0.00,,2013-05-24 14:02:00,
2013-05-24 10:11:00,78.0,63.0,29.92,North,354,3.0,8.0,61,0.00,,,0.00,,2013-05-24 14:11:00,
2013-05-24 10:22:00,79.0,63.0,29.92,NNE,29,0.0,2.0,59,0.00,,,0.00,,2013-05-24 14:22:00,
2013-05-24 10:32:00,80.0,64.0,29.93,NE,37,1.0,6.0,59,0.00,,,0.00,,2013-05-24 14:32:00,
2013-05-24 10:42:00,80.0,64.0,29.93,NE,37,1.0,6.0,59,0.00,,,0.00,,2013-05-24 14:42:00,
2013-05-24 10:52:00,81.0,65.0,29.92,ENE,60,1.0,7.0,58,0.00,,,0.00,,2013-05-24 14:52:00,
2013-05-24 11:02:00,81.0,64.0,29.93,SSW,193,1.0,3.0,57,0.00,,,0.00,,2013-05-24 15:02:00,
2013-05-24 11:11:00,81.0,64.0,29.93,SSW,193,1.0,3.0,57,0.00,,,0.00,,2013-05-24 15:11:00,
2013-05-24 11:22:00,82.0,64.0,29.93,SSW,194,1.0,3.0,55,0.00,,,0.00,,2013-05-24 15:22:00,
2013-05-24 11:33:00,82.0,64.0,29.94,NW,314,1.0,5.0,55,0.00,,,0.00,,2013-05-24 15:33:00,
2013-05-24 11:43:00,82.0,64.0,29.94,NW,314,1.0,5.0,55,0.00,,,0.00,,2013-05-24 15:43:00,
2013-05-24 11:52:00,82.0,64.0,29.94,ENE,77,1.0,3.0,55,0.00,,,0.00,,2013-05-24 15:52:00,
2013-05-24 12:03:00,83.0,63.0,29.94,North,354,2.0,12.0,51,0.00,,,0.00,,2013-05-24 16:03:00,
2013-05-24 12:13:00,83.0,63.0,29.94,North,354,2.0,12.0,51,0.00,,,0.00,,2013-05-24 16:13:00,
2013-05-24 12:22:00,83.0,60.0,29.95,NNW,338,2.0,6.0,46,0.00,,,0.00,,2013-05-24 16:22:00,
2013-05-24 12:32:00,82.0,64.0,29.95,NNE,16,1.0,5.0,55,0.00,,,0.00,,2013-05-24 16:32:00,
2013-05-24 12:42:00,82.0,64.0,29.95,NNE,16,1.0,5.0,55,0.00,,,0.00,,2013-05-24 16:42:00,
2013-05-24 12:52:00,83.0,62.0,29.95,WNW,287,2.0,9.0,50,0.00,,,0.00,,2013-05-24 16:52:00,
2013-05-24 13:02:00,83.0,60.0,29.95,North,354,3.0,8.0,46,0.00,,,0.00,,2013-05-24 17:02:00,
2013-05-24 13:12:00,83.0,60.0,29.95,North,354,3.0,8.0,46,0.00,,,0.00,,2013-05-24 17:12:00,
2013-05-24 13:22:00,83.0,62.0,29.95,NNW,345,3.0,9.0,49,0.00,,,0.00,,2013-05-24 17:22:00,
2013-05-24 13:32:00,84.0,62.0,29.95,NNE,17,2.0,7.0,48,0.00,,,0.00,,2013-05-24 17:32:00,
2013-05-24 13:42:00,84.0,62.0,29.95,NNE,17,2.0,7.0,48,0.00,,,0.00,,2013-05-24 17:42:00,
2013-05-24 13:52:00,83.0,62.0,29.95,North,358,1.0,5.0,50,0.00,,,0.00,,2013-05-24 17:52:00,
2013-05-24 14:01:00,83.0,64.0,29.95,ESE,117,1.0,3.0,52,0.00,,,0.00,,2013-05-24 18:01:00,
2013-05-24 14:12:00,83.0,64.0,29.95,ESE,117,1.0,3.0,52,0.00,,,0.00,,2013-05-24 18:12:00,
2013-05-24 14:22:00,84.0,62.0,29.95,NNE,16,1.0,3.0,48,0.00,,,0.00,,2013-05-24 18:22:00,
2013-05-24 14:32:00,83.0,62.0,29.95,North,4,1.0,12.0,50,0.00,,,0.00,,2013-05-24 18:32:00,
2013-05-24 14:42:00,83.0,62.0,29.95,North,4,1.0,12.0,50,0.00,,,0.00,,2013-05-24 18:42:00,
2013-05-24 14:52:00,85.0,64.0,29.96,NNE,16,2.0,6.0,49,0.00,,,0.00,,2013-05-24 18:52:00,
2013-05-24 15:01:00,85.0,64.0,29.96,NW,324,1.0,6.0,50,0.00,,,0.00,,2013-05-24 19:01:00,
2013-05-24 15:11:00,85.0,64.0,29.96,NW,324,1.0,6.0,50,0.00,,,0.00,,2013-05-24 19:11:00,
2013-05-24 15:21:00,85.0,63.0,29.96,WSW,241,1.0,8.0,48,0.00,,,0.00,,2013-05-24 19:21:00,
2013-05-24 15:32:00,85.0,61.0,29.96,North,10,3.0,9.0,44,0.00,,,0.00,,2013-05-24 19:32:00,
2013-05-24 15:42:00,85.0,61.0,29.96,North,10,3.0,9.0,44,0.00,,,0.00,,2013-05-24 19:42:00,
2013-05-24 15:52:00,85.0,59.0,29.96,WNW,291,3.0,10.0,42,0.00,,,0.00,,2013-05-24 19:52:00,
2013-05-24 16:02:00,84.0,60.0,29.96,NNE,16,2.0,7.0,45,0.00,,,0.00,,2013-05-24 20:02:00,
2013-05-24 16:12:00,84.0,60.0,29.96,NNE,16,2.0,7.0,45,0.00,,,0.00,,2013-05-24 20:12:00,
2013-05-24 16:22:00,85.0,61.0,29.96,NNE,15,2.0,10.0,45,0.00,,,0.00,,2013-05-24 20:22:00,
2013-05-24 16:32:00,84.0,58.0,29.96,North,353,4.0,15.0,42,0.00,,,0.00,,2013-05-24 20:32:00,
2013-05-24 16:42:00,84.0,58.0,29.96,North,353,4.0,15.0,42,0.00,,,0.00,,2013-05-24 20:42:00,
2013-05-24 16:52:00,82.0,59.0,29.96,NNW,343,5.0,16.0,45,0.00,,,0.00,,2013-05-24 20:52:00,
2013-05-24 17:01:00,82.0,60.0,29.97,NW,317,2.0,10.0,47,0.00,,,0.00,,2013-05-24 21:01:00,
2013-05-24 17:11:00,82.0,60.0,29.97,NW,317,2.0,10.0,47,0.00,,,0.00,,2013-05-24 21:11:00,
2013-05-24 17:21:00,81.0,58.0,29.97,NNW,346,5.0,12.0,45,0.00,,,0.00,,2013-05-24 21:21:00,
2013-05-24 17:33:00,81.0,58.0,29.97,North,5,6.0,16.0,46,0.00,,,0.00,,2013-05-24 21:33:00,
2013-05-24 17:43:00,81.0,58.0,29.97,North,5,6.0,16.0,46,0.00,,,0.00,,2013-05-24 21:43:00,
2013-05-24 17:53:00,81.0,58.0,29.97,NNW,344,7.0,15.0,46,0.00,,,0.00,,2013-05-24 21:53:00,
2013-05-24 18:03:00,81.0,58.0,29.97,NNW,332,2.0,9.0,45,0.00,,,0.00,,2013-05-24 22:03:00,
2013-05-24 18:12:00,81.0,58.0,29.97,NNW,332,2.0,9.0,45,0.00,,,0.00,,2013-05-24 22:12:00,
2013-05-24 18:22:00,80.0,57.0,29.98,NW,306,3.0,12.0,46,0.00,,,0.00,,2013-05-24 22:22:00,
2013-05-24 18:33:00,80.0,56.0,29.98,NW,326,3.0,13.0,44,0.00,,,0.00,,2013-05-24 22:33:00,
2013-05-24 18:42:00,80.0,56.0,29.98,NW,326,3.0,13.0,44,0.00,,,0.00,,2013-05-24 22:42:00,
2013-05-24 18:52:00,80.0,55.0,29.98,NNE,32,3.0,15.0,43,0.00,,,0.00,,2013-05-24 22:52:00,
2013-05-24 19:02:00,79.0,55.0,29.99,NW,324,2.0,14.0,43,0.00,,,0.00,,2013-05-24 23:02:00,
2013-05-24 19:11:00,79.0,55.0,29.99,NW,324,2.0,14.0,43,0.00,,,0.00,,2013-05-24 23:11:00,
2013-05-24 19:22:00,79.0,53.0,29.99,North,4,2.0,12.0,40,0.00,,,0.00,,2013-05-24 23:22:00,
2013-05-24 19:32:00,78.0,50.0,30.00,North,3,5.0,12.0,37,0.00,,,0.00,,2013-05-24 23:32:00,
2013-05-24 19:42:00,78.0,50.0,30.00,North,3,5.0,12.0,37,0.00,,,0.00,,2013-05-24 23:42:00,
2013-05-24 19:52:00,77.0,45.0,30.02,North,0,4.0,14.0,32,0.00,,,0.00,,2013-05-24 23:52:00,
2013-05-24 20:01:00,77.0,46.0,30.03,North,355,4.0,12.0,33,0.00,,,0.00,,2013-05-25 00:01:00,
2013-05-24 20:12:00,77.0,46.0,30.03,North,355,4.0,12.0,33,0.00,,,0.00,,2013-05-25 00:12:00,
2013-05-24 20:22:00,76.0,42.0,30.04,North,11,5.0,16.0,30,0.00,,,0.00,,2013-05-25 00:22:00,
2013-05-24 20:32:00,75.0,41.0,30.05,West,279,4.0,12.0,29,0.00,,,0.00,,2013-05-25 00:32:00,
2013-05-24 20:42:00,75.0,41.0,30.05,West,279,4.0,12.0,29,0.00,,,0.00,,2013-05-25 00:42:00,
2013-05-24 20:52:00,74.0,41.0,30.06,North,356,3.0,10.0,30,0.00,,,0.00,,2013-05-25 00:52:00,
2013-05-24 21:01:00,74.0,41.0,30.06,NNW,348,2.0,10.0,31,0.00,,,0.00,,2013-05-25 01:01:00,
2013-05-24 21:11:00,74.0,41.0,30.06,NNW,348,2.0,10.0,31,0.00,,,0.00,,2013-05-25 01:11:00,
2013-05-24 21:22:00,72.0,44.0,30.07,NNE,14,1.0,10.0,36,0.00,,,0.00,,2013-05-25 01:22:00,
2013-05-24 21:32:00,71.0,43.0,30.07,North,352,1.0,5.0,37,0.00,,,0.00,,2013-05-25 01:32:00,
2013-05-24 21:42:00,71.0,43.0,30.07,North,352,1.0,5.0,37,0.00,,,0.00,,2013-05-25 01:42:00,
2013-05-24 21:52:00,71.0,45.0,30.08,NNW,345,2.0,6.0,39,0.00,,,0.00,,2013-05-25 01:52:00,
2013-05-24 22:02:00,71.0,45.0,30.08,North,355,3.0,7.0,39,0.00,,,0.00,,2013-05-25 02:02:00,
2013-05-24 22:12:00,71.0,45.0,30.08,North,355,3.0,7.0,39,0.00,,,0.00,,2013-05-25 02:12:00,
2013-05-24 22:22:00,70.0,47.0,30.10,North,9,2.0,5.0,44,0.00,,,0.00,,2013-05-25 02:22:00,
2013-05-24 22:32:00,70.0,47.0,30.10,North,11,2.0,8.0,44,0.00,,,0.00,,2013-05-25 02:32:00,
2013-05-24 22:42:00,70.0,47.0,30.10,North,11,2.0,8.0,44,0.00,,,0.00,,2013-05-25 02:42:00,
2013-05-24 22:52:00,69.0,46.0,30.11,NNW,341,2.0,7.0,44,0.00,,,0.00,,2013-05-25 02:52:00,
2013-05-24 23:02:00,69.0,48.0,30.12,North,7,2.0,8.0,47,0.00,,,0.00,,2013-05-25 03:02:00,
2013-05-24 23:11:00,69.0,48.0,30.12,North,7,2.0,8.0,47,0.00,,,0.00,,2013-05-25 03:11:00,
2013-05-24 23:22:00,69.0,49.0,30.13,North,4,3.0,8.0,49,0.00,,,0.00,,2013-05-25 03:22:00,
2013-05-24 23:32:00,68.0,48.0,30.13,NNE,15,4.0,9.0,48,0.00,,,0.00,,2013-05-25 03:32:00,
2013-05-24 23:43:00,68.0,48.0,30.13,NNE,15,4.0,9.0,48,0.00,,,0.00,,2013-05-25 03:43:00,
2013-05-24 23:53:00,67.0,48.0,30.14,North,9,1.0,3.0,51,0.00,,,0.00,,2013-05-25 03:53:00,